Regional Weather Roundup
Issued by NWS Grand Forks, ND

Home | Current Version | Previous Version | Text Only | Print | Product List | Glossary On
Versions: 1 2 3 4 5 6 7 8 9 10 11 12 13 14 15 16 17 18 19 20 21 22 23 24 25 26 27 28 29 30 31 32 33 34 35 36 37 38 39 40 41 42 43 44 45 46 47 48 49 50
000
ASUS43 KFGF 290631
RWRFGF
PRAIRIE TO PINES  WEATHER ROUNDUP
NATIONAL WEATHER SERVICE EASTERN NORTH DAKOTA/GRAND FORKS ND
100 AM CDT FRI JUL 29 2016

 **SATELLITE DATA USED TO AUGMENT SKY COVER AT AUTOMATED STATIONS**
 *****  WEATHER ACROSS EASTERN NORTH DAKOTA  *****

CITY           SKY/WX    TMP DP  RH WIND       PRES   REMARKS
GRAND FORKS    CLEAR     57  53  86 NW3       30.10S
6HR MIN TEMP:  56; 6HR MAX TEMP:  75;

GRAND FRKS AFB CLEAR     55  54  95 NW2       30.11S
GRAND FRKS NWS   N/A     59 N/A N/A VRB5        N/A
DEVILS LAKE    CLEAR     60  57  89 CALM      30.14S
6HR MIN TEMP:  60; 6HR MAX TEMP:  73;

FARGO          CLOUDY    64  58  80 N5        30.09S
WAHPETON ARPT  CLEAR     63  57  82 CALM      30.09S
$$

 ***** WEATHER ACROSS CENTRAL AND WESTERN NORTH DAKOTA  *****

CITY           SKY/WX    TMP DP  RH WIND       PRES   REMARKS
BISMARCK       MOCLDY    66  56  70 NW3       30.12S
6HR MIN TEMP:  66; 6HR MAX TEMP:  73;

MINOT          CLEAR     62  53  72 CALM      30.12S
6HR MIN TEMP:  60; 6HR MAX TEMP:  78;

JAMESTOWN      MOCLDY    63  60  90 E5        30.11F
6HR MIN TEMP:  63; 6HR MAX TEMP:  74;

MINOT AFB      CLEAR     52  49  90 SW3       30.11S
GARRISON         N/A     58  56  93 N5        30.13S
WILLISTON      PTCLDY    56  52  86 CALM      30.13S
6HR MIN TEMP:  55; 6HR MAX TEMP:  76;

DICKINSON      CLOUDY    59  57  93 CALM      30.14S
6HR MIN TEMP:  59; 6HR MAX TEMP:  67;

HETTINGER      FOG       52  50  93 CALM      30.17S VSB 1/4
6HR MIN TEMP:  53; 6HR MAX TEMP:  70;

$$

 *****  OTHER AIRPORT OBSERVATIONS IN OUR AREA  *****

CITY           SKY/WX    TMP DP  RH WIND       PRES   REMARKS
WALHALLA       FAIR      55  52  88 CALM      30.12S
GRAFTON AIRPOR FAIR      59  57  94 NW5       30.12F
VALLEY CITY AR MOCLDY    63  63 100 E7        30.13F
CANDO          FAIR      52  52 100 SE3       30.15S
CAVALIER APRT  FAIR      55  55 100 W3        30.11S
GWINNER        FAIR      61  59  94 N6        30.11S
SHEYENNE NWR     N/A     64  57  77 NE7       29.95S
ROLLA          FAIR      54  54 100 W3        30.15S
 ***** THE ABOVE OBSERVATIONS ARE NON NWS ARE NOT QUALITY
       CONTROLLED AND MAY MIS-REPORT RAIN FOR SNOW...
$$

  *****  WEATHER ACROSS NORTHERN MINNESOTA  *****

CITY           SKY/WX    TMP DP  RH WIND       PRES   REMARKS
FLAG ISLAND    CLEAR     66  59  77 CALM      30.09S
WARROAD        CLEAR     55  52  88 CALM      30.11S
ROSEAU         CLEAR     55  52  88 CALM      30.11S
HALLOCK        CLEAR     57  54  88 CALM      30.10F
THF RVR FALLS  CLEAR     58  55  90 CALM      30.12S
6HR MIN TEMP:  57; 6HR MAX TEMP:  73;

BAUDETTE       CLEAR     54  52  93 CALM      30.10R
6HR MIN TEMP:  54; 6HR MAX TEMP:  74;

WASKISH        CLEAR     57  55  94 CALM      30.09S
CROOKSTON      CLEAR     57  55  94 CALM      30.11S
STEPHEN NDAWN    N/A     57  55  94 NW3         N/A
GREENBUSH NDAW   N/A     55  54  94 CALM        N/A
$$
  *****  WEATHER ACROSS CENTRAL AND WEST MINNESOTA  *****

CITY           SKY/WX    TMP DP  RH WIND       PRES   REMARKS
FOSSTON        CLEAR     52  48  87 CALM      30.12S
BEMIDJI        CLEAR     55  54  94 W3        30.10S
PARK RAPIDS    CLEAR     61  55  81 CALM      30.11R
6HR MIN TEMP:  60; 6HR MAX TEMP:  77;

ELBOW LAKE     FAIR      65  60  84 E5        30.11R
WADENA         PTCLDY    57  57 100 CALM      30.10S
DETROIT LAKES  PTCLDY    63  59  88 CALM      30.12S
MOORHEAD       MOCLDY    63  57  82 CALM      30.10F
FERGUS FALLS   PTCLDY    66  61  82 CALM      30.11R
MORRIS MN      CLEAR     64  61  88 CALM      30.10R
STAPLES        CLEAR     59  57  94 CALM      30.11S
$$
  *****  WEATHER ELSEWHERE ACROSS MINNESOTA  *****

CITY           SKY/WX    TMP DP  RH WIND       PRES   REMARKS
DULUTH         CLEAR     52  50  93 NE3       30.11R
6HR MIN TEMP:  52; 6HR MAX TEMP:  67;

INTRNTL FALLS  CLEAR     52  51  97 CALM      30.09S
6HR MIN TEMP:  51; 6HR MAX TEMP:  75;

ELY            CLEAR     50  48  93 CALM      30.12S
CLOQUET        CLEAR     52  48  87 CALM      30.11R
WHEATON        PTCLDY    64  63  94 SE8       30.11R
BRAINERD       CLOUDY    61  59  93 CALM      30.11R
6HR MIN TEMP:  60; 6HR MAX TEMP:  75;

HIBBING        CLEAR     48  47  96 CALM      30.12R FOG
6HR MIN TEMP:  49; 6HR MAX TEMP:  73;

ALEXANDRIA     CLEAR     63  55  75 SE3       30.12S
6HR MIN TEMP:  63; 6HR MAX TEMP:  73;

SAINT CLOUD    CLEAR     60  56  86 CALM      30.08S
6HR MIN TEMP:  58; 6HR MAX TEMP:  73;

MINNEAPOLIS    MOCLDY    66  57  72 NE3       30.06R
6HR MIN TEMP:  66; 6HR MAX TEMP:  74;

$$

  *****  WEATHER ACROSS SOUTH DAKOTA  *****

CITY           SKY/WX    TMP DP  RH WIND       PRES   REMARKS
SIOUX FALLS    PTCLDY    60  55  83 NE3       30.09S
6HR MIN TEMP:  60; 6HR MAX TEMP:  75;

BROOKINGS      CLOUDY    59  55  87 CALM      30.10S
WATERTOWN      LGT RAIN  65  59  81 CALM      30.11R
6HR MIN TEMP:  65; 6HR MAX TEMP:  76; 6HR PCP: TRACE;

HURON          MOCLDY    65  58  78 E6        30.09R
6HR MIN TEMP:  65; 6HR MAX TEMP:  79;

SISSETON         N/A     66  63  90 CALM      30.08R
ABERDEEN       CLOUDY    66  59  78 S5        30.09S
6HR MIN TEMP:  62; 6HR MAX TEMP:  79;

MITCHELL       CLOUDY    65  59  81 E5        30.09S
PIERRE         MOCLDY    64  63  96 W6        30.09S
6HR MIN TEMP:  64; 6HR MAX TEMP:  66; 6HR PCP:  0.01;

MOBRIDGE       CLOUDY    68  59  73 N3        30.09S
RAPID CITY     PTCLDY    56  55  97 CALM      30.17S FOG
6HR MIN TEMP:  56; 6HR MAX TEMP:  74;

$$

  *****  SOME WEATHER IN NEARBY STATES *****

CITY           SKY/WX    TMP DP  RH WIND       PRES   REMARKS
GLASGOW MT     CLEAR     62  55  77 E9        30.10S
6HR MIN TEMP:  62; 6HR MAX TEMP:  79;

GREAT FALLS MT CLEAR     70  49  47 E12       30.08S
6HR MIN TEMP:  70; 6HR MAX TEMP:  86;

CHEYENNE WY    PTCLDY    57  54  89 SW8       30.29F
6HR MIN TEMP:  57; 6HR MAX TEMP:  68;

SCOTTSBLUFF NE PTCLDY    63  60  90 NE6       30.17F
6HR MIN TEMP:  63; 6HR MAX TEMP:  81;

OMAHA NE       CLOUDY    70  65  84 NW5       30.02F
6HR MIN TEMP:  70; 6HR MAX TEMP:  81; 6HR PCP: TRACE;

DES MOINES IA  CLOUDY    70  65  84 N8        29.99S
6HR MIN TEMP:  70; 6HR MAX TEMP:  79;

DAVENPORT IA   MOCLDY    68  66  93 NW5       29.93S
6HR MIN TEMP:  67; 6HR MAX TEMP:  79;

CHICAGO IL     MOCLDY    70  68  93 N9        29.92R
6HR MIN TEMP:  70; 6HR MAX TEMP:  75;

EAU CLAIRE WI  CLOUDY    64  62  93 N5        30.03S
6HR MIN TEMP:  64; 6HR MAX TEMP:  66; 6HR PCP:  0.01;

LA CROSSE WI   CLOUDY    65  62  90 N3        30.00S
6HR MIN TEMP:  64; 6HR MAX TEMP:  66; 6HR PCP:  0.03;

$$

  *****  SOME NATIONAL WEATHER *****

CITY           SKY/WX    TMP DP  RH WIND       PRES   REMARKS
LA GUARDIA NY  LGT RAIN  78  72  81 E3        29.86S
6HR MIN TEMP:  78; 6HR MAX TEMP:  83; 6HR PCP:  0.01;

RALEIGH NC     CLEAR     79  70  74 SW7       29.88S
6HR MIN TEMP:  78; 6HR MAX TEMP:  91;

ATLANTA GA     PTCLDY    76  71  85 SW5       30.02R
6HR MIN TEMP:  76; 6HR MAX TEMP:  85;

NEW ORLEANS LA PTCLDY    82  72  71 CALM      30.02S
6HR MIN TEMP:  82; 6HR MAX TEMP:  86;

OKLAHOMA CITY  MOCLDY    79  72  79 E8        29.97F
6HR MIN TEMP:  78; 6HR MAX TEMP:  89;

ALBUQUERQUE NM PTCLDY    78  46  32 SE7       30.13R
6HR MIN TEMP:  78; 6HR MAX TEMP:  91;

SALT LAKE CITY CLEAR     79  44  28 SW6       30.03S
6HR MIN TEMP:  79; 6HR MAX TEMP: 101;

LOS ANGELES CA CLEAR     71  63  75 W8        29.84F
6HR MIN TEMP:  70; 6HR MC1F1C2F2C3F3C4F4C5F5C6F6C7F7C8F8C9F9CaFaCbFbCcFcCd!


USA.gov is the U.S. government's official web portal to all federal, state and local government web resources and services.